Regional Weather Roundup
Issued by NWS

Home | Current Version | Previous Version | Text Only | Print | Product List | Glossary On
Versions: 1 2 3 4 5 6 7 8 9 10 11 12 13 14 15 16 17 18 19 20 21 22 23 24 25 26 27 28 29 30 31 32 33 34 35 36 37 38 39 40 41 42 43 44 45 46 47 48 49 50
000
ASUS43 KMPX 311401
RWRMN
WEATHER ROUNDUP FOR MINNESOTA
NATIONAL WEATHER SERVICE TWIN CITIES/CHANHASSEN MN
900 AM CDT FRI OCT 31 2014


NOTE: "FAIR" INDICATES FEW OR NO CLOUDS BELOW 12,000 FEET WITH NO
SIGNIFICANT WEATHER AND/OR OBSTRUCTIONS TO VISIBILITY. N/A MEANS
CURRENT SKY AND/OR WEATHER CONDITIONS ARE NOT AVAILABLE.

MNZ060>063-068>070-311500-
   Twin Cities Metro

CITY           SKY/WX    TMP DP  RH WIND       PRES   REMARKS
TWIN CITIES    SUNNY     28  16  60 N13G21    30.54R WCI  17
ST PAUL        SUNNY     29  18  63 N9G21     30.56R WCI  20
CRYSTAL        SUNNY     29  17  61 N8        30.54R WCI  21
LAKEVILLE      SUNNY     27  18  69 N9        30.52R WCI  17
EDEN PRAIRIE   SUNNY     28  17  63 N13       30.53R WCI  17
SOUTH ST PAUL  SUNNY     30  18  60 N10       30.54R WCI  21
LAKE ELMO      FAIR      30  19  64 N8        30.54R WCI  23
$$
MNZ001>005-007-008-013>017-022>024-027-028-311500-
   Northwest Minnesota

CITY           SKY/WX    TMP DP  RH WIND       PRES   REMARKS
BEMIDJI        CLEAR     17  14  89 W3        30.57R
HALLOCK        CLEAR     14  10  85 CALM      30.61R
ROSEAU         CLEAR     19  16  86 CALM      30.60S
WARROAD        CLOUDY    21  18  86 W3        30.60R
THIEF RVR FALL CLEAR     19  18  93 CALM      30.61R
CROOKSTON      PTCLDY    14  10  85 CALM      30.63S
FOSSTON        CLEAR     16  12  86 CALM      30.60S
DETROIT LAKES  CLEAR     21  21 100 CALM      30.59S
MOORHEAD       PTCLDY    16  16 100 CALM      30.63R
PARK RAPIDS    CLEAR     17  15  92 W3        30.57R
MAHNOMEN       FAIR      15  13  92 E3        30.59R
$$
MNZ006-009>011-018-025>026-311500-
   North Central Minnesota

CITY           SKY/WX    TMP DP  RH WIND       PRES   REMARKS
BAUDETTE       CLEAR     21  18  88 SW3       30.58R
FLAG ISLAND    CLEAR     27  23  86 W8        30.58R WCI  18
INTL FALLS     CLEAR     22  18  85 NW6       30.56S WCI  14
WASKISH        CLEAR     19  18  93 CALM      30.58R
BIG FORK       CLEAR     21  18  86 CALM      30.56S
LONGVILLE      CLEAR     25  18  74 CALM      30.56R
GRAND RAPIDS   CLEAR     25  16  68 CALM      30.54F
CRANE LAKE     CLOUDY    25  19  80 N6        30.58R WCI  18
ORR            CLOUDY    25  18  74 CALM      30.53R
COOK           MOCLDY    21  18  86 CALM      30.56R
WALKER         FAIR      21  15  78 CALM      30.56R
$$
MNZ012-019>021-037-311500-
   Northeast Minnesota

CITY           SKY/WX    TMP DP  RH WIND       PRES   REMARKS
DULUTH         PTCLDY    27  17  66 N12       30.52R WCI  17
ELY            CLOUDY    25  19  80 N3        30.53R
HIBBING        CLEAR     24  17  74 NW6       30.55R WCI  17
EVELETH        CLOUDY    27  19  74 N6        30.55S WCI  20
DULUTH HARBOR  SUNNY     32  23  69 N20G25    30.57R WCI  20
TWO HARBORS    PTSUNNY   30  21  69 N5        30.52R WCI  25
SILVER BAY     SUNNY     30  19  64 N3        30.50R
GRAND MARAIS     N/A     31  19  61 VRB7      30.53R WCI  24
G MARAIS ARPRT MOSUNNY   25  14  63 N12G18    30.45R WCI  14
$$
MNZ029>031-032-039>041-046>048-054>057-064-311500-
   West Central Minnesota

CITY           SKY/WX    TMP DP  RH WIND       PRES   REMARKS
FERGUS FALLS   PTCLDY    19  16  86 CALM      30.63R
WHEATON        PTCLDY    18  16  93 NW5       30.64R WCI  11
MORRIS         PTCLDY    19  18  93 NW6       30.59R WCI  11
ALEXANDRIA     CLEAR     25  18  74 N6        30.58R WCI  18
ELBOW LAKE     FAIR      19  18  95 N3        30.59R
WADENA         CLEAR     19  18  93 NW6       30.58R WCI  11
GLENWOOD       CLEAR     23  18  80 N6        30.57S WCI  16
APPLETON       CLEAR     23  19  86 NW6       30.60R WCI  16
BENSON         CLEAR     19  18  93 N3        30.58S
ORTONVILLE     CLEAR     19  18  93 NW5       30.61R WCI  13
MADISON        CLEAR     23  21  93 NW7       30.61R WCI  15
WILLMAR        FAIR      27  19  74 N6        30.58R WCI  20
$$
MNZ033>034-036-042>043-049>051-058-059-311500-
   Central Minnesota

CITY           SKY/WX    TMP DP  RH WIND       PRES   REMARKS
ST CLOUD       CLEAR     27  17  66 N5        30.56R WCI  22
SAUK CENTRE    FAIR      23  18  80 NW7       30.57R WCI  15
PAYNESVILLE    CLEAR     20  17  87 W3        30.58R
AITKIN         CLEAR     28  19  69 N6        30.53F WCI  22
PINE RIVER     CLEAR     25  18  74 N3        30.58R
BRAINERD       CLEAR     25  18  74 NE9       30.55R WCI  15
STAPLES        CLEAR     19  18  93 NW6       30.57R WCI  11
LONG PRAIRIE   FAIR      23  18  80 NW7       30.57R WCI  15
LITTLE FALLS   CLEAR     27  18  69 CALM      30.56R
LITCHFIELD       N/A     25  21  86 NW7       30.56R WCI  17
BUFFALO        CLEAR     27  18  70 N7        30.56R WCI  19
MAPLE LAKE     CLEAR     27  22  80 N5        30.56R WCI  22
$$
MNZ037-044-045-052-053-311500-
   East Central Minnesota

CITY           SKY/WX    TMP DP  RH WIND       PRES   REMARKS
PRINCETON      CLEAR     28  18  64 N8        30.55R WCI  20
MORA           CLEAR     27  18  69 N5        30.56R WCI  21
CAMBRIDGE      CLEAR     28  18  64 N5        30.53R WCI  23
RUSH CITY      SUNNY     26  19  72 N5        30.55R WCI  21
MOOSE LAKE     CLEAR     28  18  64 N7        30.53R WCI  21
HINCKLEY       FAIR      28  19  69 CALM      30.55R
CLOQUET        FAIR      27  18  69 N12       30.53R WCI  16
MCGREGOR       CLEAR     28  19  69 N7        30.55S WCI  21
$$
MNZ071>073-080-081-089-090-097-098-311500-
   Southwest Minnesota

CITY           SKY/WX    TMP DP  RH WIND       PRES   REMARKS
MONTEVIDEO     CLEAR     25  21  86 N5        30.60R WCI  19
GRANITE FALLS  CLEAR     22  20  91 NW3       30.61R
CANBY          CLEAR     22  20  93 NW7       30.61R WCI  13
MARSHALL       CLEAR     19  16  86 NW10      30.57R WCI   8
REDWOOD FALLS  CLEAR     25  19  78 N8        30.58R WCI  16
OLIVIA         CLEAR     23  19  86 NW6       30.57R WCI  16
PIPESTONE      CLEAR     19  18  93 N3        30.55R
WINDOM         CLEAR     23  19  86 N10       30.55R WCI  12
WORTHINGTON    CLEAR     21  18  86 N9        30.55R WCI  11
JACKSON        CLEAR     25  19  80 N7        30.54R WCI  17
TRACY          CLEAR     23  20  90 NW12      30.58R WCI  11
SLAYTON        CLEAR     21  19  92 CALM      30.55R
$$
MNZ065>067-074>077-082>085-091>093-311500-
   South Central Minnesota

CITY           SKY/WX    TMP DP  RH WIND       PRES   REMARKS
MANKATO        SUNNY     25  16  68 NW8       30.53R WCI  16
NEW ULM        CLEAR     23  19  86 NW10      30.55R WCI  12
ST JAMES       CLEAR     25  19  80 NW9       30.56R WCI  15
FAIRMONT       SUNNY     25  16  68 NW13G18   30.53R WCI  13
GLENCOE        CLEAR     26  21  82 N5        30.55R WCI  20
FARIBAULT      SUNNY     28  18  64 N8        30.51R WCI  20
OWATONNA       SUNNY     27  18  69 N13       30.50R WCI  16
WASECA         SUNNY     27  18  69 N9        30.53R WCI  17
ALBERT LEA     SUNNY     27  19  74 N14       30.48R WCI  15
$$
MNZ078>079-086>088-094>096-311500-
   Southeast Minnesota

CITY           SKY/WX    TMP DP  RH WIND       PRES   REMARKS
ROCHESTER      SUNNY     27  17  66 N17       30.46R WCI  14
RED WING       SUNNY     30  18  59 NW6       30.50R WCI  24
STANTON        FAIR      29  18  63 N15G21    30.50R WCI  18
DODGE CENTER   MOSUNNY   27  19  74 N16       30.47R WCI  14
WINONA         SUNNY     32  21  64 N8G18     30.47R WCI  25
AUSTIN         SUNNY     27  18  69 N10G20    30.47R WCI  17
PRESTON        SUNNY     27  18  70 N10G23    30.43R WCI  17
$$
ABBREVIATIONS USED IN REMARKS
   TC - TEMPERATURES IN CELSIUS
  WCI - WIND CHILL INDEX
   HX - HEAT INDEX
  VSB - VISIBILITY
$$



USA.gov is the U.S. government's official web portal to all federal, state and local government web resources and services.